Regional Weather Roundup
Issued by NWS Goodland, KS

Home | Current Version | Previous Version | Text Only | Print | Product List | Glossary Off
Versions: 1 2 3 4 5 6 7 8 9 10 11 12 13 14 15 16 17 18 19 20 21 22 23 24 25 26 27 28 29 30 31 32 33 34 35 36 37 38 39 40 41 42 43 44 45 46 47 48 49 50

000
ASUS43 KGLD 040908
RWRGLD

GOODLAND FORECAST AREA HOURLY WEATHER ROUNDUP
NATIONAL WEATHER SERVICE GOODLAND KS
300 AM MDT FRI SEP 04 2015

...OFFICIAL OBSERVATIONS...

CITY           SKY/WX    TMP DP  RH WIND       PRES   REMARKS
GOODLAND KS    PTCLDY    65  56  72 W9        29.84S
HILL CITY KS   PTCLDY    79  59  50 S13       29.80S
IMPERIAL NEB   MOCLDY    67  63  87 W3        29.84R
MCCOOK NEB     MOCLDY    75  58  55 SE10      29.77F
AKRON CO       CLEAR     60  53  77 W12       29.93S
BURLINGTON CO  PTCLDY    60  51  72 NW8       29.90F
LIMON CO       PTCLDY    56  53  90 NW3       30.01R
$$

...UNOFFICIAL OBSERVATIONS...

CITY           SKY/WX    TMP DP  RH WIND       PRES   REMARKS
COLBY KS       CLEAR     75  59  57 S10       29.83R
GOVE KS          N/A     76  32  20 MISG        N/A
LENORA KS        N/A     75  32  20 MISG        N/A
NORTON KS      CLEAR     73  55  53 CALM      29.79
SHARON SPRINGS   N/A     66  57  73 W6          N/A
KIT CARSON CO    N/A     65  53  65 MISG        N/A
YUMA CO          N/A     58  53  82 W7          N/A
$$



USA.gov is the U.S. government's official web portal to all federal, state and local government web resources and services.